Regional Weather Roundup
Issued by NWS

Home | Current Version | Previous Version | Text Only | Print | Product List | Glossary Off
Versions: 1 2 3 4 5 6 7 8 9 10 11 12 13 14 15 16 17 18 19 20 21 22 23 24 25 26 27 28 29 30 31 32 33 34 35 36 37 38 39 40 41 42 43 44 45 46 47 48 49 50

401
ASUS43 KBIS 181802
RWRND

NORTH DAKOTA REGIONAL WEATHER ROUNDUP
NATIONAL WEATHER SERVICE BISMARCK ND
1200 PM CST THU JAN 18 2018

NOTE: "FAIR" INDICATES FEW OR NO CLOUDS BELOW 12,000 FEET WITH NO
SIGNIFICANT WEATHER AND/OR OBSTRUCTIONS TO VISIBILITY.


NDZ001>003-009>011-017-181900-
NORTHWEST NORTH DAKOTA

CITY           SKY/WX    TMP DP  RH WIND       PRES   REMARKS
WILLISTON      CLOUDY    30  22  72 SW10      29.73S
6HR MIN TEMP:  18; 6HR MAX TEMP:  30;

MINOT          CLOUDY    35  23  61 SW12      29.70F
MINOT AFB      CLOUDY    33  24  69 SW6       29.68F
$$

NDZ018>021-031>035-040>046-181900-
SOUTHWEST NORTH DAKOTA

CITY           SKY/WX    TMP DP  RH WIND       PRES   REMARKS
BISMARCK       CLOUDY    27  20  75 CALM      29.79F
6HR MIN TEMP:  13; 6HR MAX TEMP:  27;

DICKINSON      CLOUDY    40  26  57 W8        29.73F
GARRISON         N/A     28  21  75 SW8       29.73F WCI  20
6HR MIN TEMP:  14; 6HR MAX TEMP:  28;

HETTINGER ARPT CLOUDY    37  24  59 W6        29.81F
$$

NDZ004>008-012>016-024-026-027-054-181900-
NORTHEAST NORTH DAKOTA

CITY           SKY/WX    TMP DP  RH WIND       PRES   REMARKS
GRAND FORKS    CLOUDY    26  20  77 W5        29.77S
GRND FRKS AFB  FAIR      28  17  64 CALM      29.76F
DEVILS LAKE    FAIR      23  17  78 SW6       29.72F WCI  16
$$

NDZ022-023-025-028>030-036>039-047>053-181900-
SOUTHEAST NORTH DAKOTA

CITY           SKY/WX    TMP DP  RH WIND       PRES   REMARKS
FARGO          FAIR      30  23  75 SW7       29.78F
JAMESTOWN      CLOUDY    32  23  69 W9        29.75F
$$





USA.gov is the U.S. government's official web portal to all federal, state and local government web resources and services.